contact:dominique.lefevre@mio.osupytheas.fr, maurice.libes@osupytheas.fr, didier.mallarino@osupytheas.fr
Project:EMSO http://www.emso-fr.org/EMSO-France
Depth: 2436.0 m
Title:EMSO Ligure Ouest : Data MII capteur MICROCAT
DateTime_Computer,Latitude,Longitude,Temperature,Conductivity,Pressure,DateTime_Instrument
DateTime_Computer,Latitude,Longitude,degC,S m-1,dbar,DateTime_Instrument
2023-05-28T00:02:22Z,42.805,6.029,13.3042,4.60117,2470.73,2023-5-28T02:04:34Z
2023-05-28T00:05:25Z,42.805,6.029,13.3039,4.60103,2470.73,2023-5-28T02:07:37Z
2023-05-28T00:08:28Z,42.805,6.029,13.3034,4.60092,2470.717,2023-5-28T02:10:40Z
2023-05-28T00:11:31Z,42.805,6.029,13.3039,4.60100,2470.74,2023-5-28T02:13:44Z
2023-05-28T00:14:34Z,42.805,6.029,13.3039,4.60105,2470.73,2023-5-28T02:16:47Z
2023-05-28T00:17:37Z,42.805,6.029,13.3038,4.60099,2470.67,2023-5-28T02:19:50Z
2023-05-28T00:20:40Z,42.805,6.029,13.3036,4.60109,2470.754,2023-5-28T02:22:53Z
2023-05-28T00:23:43Z,42.805,6.029,13.3034,4.60110,2470.74,2023-5-28T02:25:56Z
2023-05-28T00:26:46Z,42.805,6.029,13.3035,4.60095,2470.717,2023-5-28T02:28:59Z
2023-05-28T00:29:49Z,42.805,6.029,13.3041,4.60098,2470.74,2023-5-28T02:32:02Z
2023-05-28T00:32:53Z,42.805,6.029,13.3039,4.60105,2470.74,2023-5-28T02:35:05Z
2023-05-28T00:35:56Z,42.805,6.029,13.3036,4.60121,2470.74,2023-5-28T02:38:08Z
2023-05-28T00:38:59Z,42.805,6.029,13.3040,4.60092,2470.74,2023-5-28T02:41:11Z
2023-05-28T00:42:02Z,42.805,6.029,13.3045,4.60107,2470.74,2023-5-28T02:44:14Z
2023-05-28T00:45:05Z,42.805,6.029,13.3036,4.60096,2470.73,2023-5-28T02:47:17Z
2023-05-28T00:48:08Z,42.805,6.029,13.3037,4.60104,2470.74,2023-5-28T02:50:21Z
2023-05-28T00:51:11Z,42.805,6.029,13.3054,4.60110,2470.754,2023-5-28T02:53:24Z
2023-05-28T00:54:14Z,42.805,6.029,13.3044,4.60116,2470.74,2023-5-28T02:56:27Z
2023-05-28T00:57:17Z,42.805,6.029,13.3034,4.60106,2470.763,2023-5-28T02:59:30Z
2023-05-28T01:00:20Z,42.805,6.029,13.3035,4.60089,2470.74,2023-5-28T03:02:33Z
2023-05-28T01:03:23Z,42.805,6.029,13.3044,4.60095,2470.763,2023-5-28T03:05:36Z
2023-05-28T01:06:26Z,42.805,6.029,13.3041,4.60110,2470.777,2023-5-28T03:08:39Z
2023-05-28T01:09:30Z,42.805,6.029,13.3036,4.60103,2470.754,2023-5-28T03:11:42Z
2023-05-28T01:12:33Z,42.805,6.029,13.3039,4.60095,2470.717,2023-5-28T03:14:45Z
2023-05-28T01:15:36Z,42.805,6.029,13.3037,4.60102,2470.763,2023-5-28T03:17:48Z
2023-05-28T01:18:39Z,42.805,6.029,13.3036,4.60104,2470.717,2023-5-28T03:20:51Z
2023-05-28T01:21:42Z,42.805,6.029,13.3039,4.60099,2470.754,2023-5-28T03:23:54Z
2023-05-28T01:24:45Z,42.805,6.029,13.3035,4.60097,2470.754,2023-5-28T03:26:57Z
2023-05-28T01:27:48Z,42.805,6.029,13.3040,4.60119,2470.74,2023-5-28T03:30:01Z
2023-05-28T01:30:51Z,42.805,6.029,13.3039,4.60095,2470.763,2023-5-28T03:33:04Z
2023-05-28T01:33:54Z,42.805,6.029,13.3045,4.60111,2470.777,2023-5-28T03:36:07Z
2023-05-28T01:36:57Z,42.805,6.029,13.3032,4.60110,2470.763,2023-5-28T03:39:10Z
2023-05-28T01:40:00Z,42.805,6.029,13.3037,4.60118,2470.74,2023-5-28T03:42:13Z
2023-05-28T01:43:03Z,42.805,6.029,13.3039,4.60117,2470.763,2023-5-28T03:45:16Z
2023-05-28T01:46:06Z,42.805,6.029,13.3037,4.60124,2470.777,2023-5-28T03:48:19Z
2023-05-28T01:49:10Z,42.805,6.029,13.3045,4.60113,2470.777,2023-5-28T03:51:22Z
2023-05-28T01:52:13Z,42.805,6.029,13.3041,4.60114,2470.763,2023-5-28T03:54:25Z
2023-05-28T01:55:16Z,42.805,6.029,13.3039,4.60119,2470.717,2023-5-28T03:57:28Z
2023-05-28T01:58:19Z,42.805,6.029,13.3034,4.60097,2470.754,2023-5-28T04:00:31Z
2023-05-28T02:01:22Z,42.805,6.029,13.3044,4.60114,2470.763,2023-5-28T04:03:34Z
2023-05-28T02:04:25Z,42.805,6.029,13.3035,4.60105,2470.74,2023-5-28T04:06:37Z
2023-05-28T02:07:28Z,42.805,6.029,13.3039,4.60127,2470.74,2023-5-28T04:09:41Z
2023-05-28T02:10:31Z,42.805,6.029,13.3043,4.60099,2470.717,2023-5-28T04:12:44Z
2023-05-28T02:13:34Z,42.805,6.029,13.3036,4.60093,2470.754,2023-5-28T04:15:47Z
2023-05-28T02:16:37Z,42.805,6.029,13.3032,4.60088,2470.777,2023-5-28T04:18:50Z
2023-05-28T02:19:40Z,42.805,6.029,13.3046,4.60097,2470.74,2023-5-28T04:21:53Z
2023-05-28T02:22:43Z,42.805,6.029,13.3034,4.60091,2470.717,2023-5-28T04:24:56Z
2023-05-28T02:25:46Z,42.805,6.029,13.3037,4.60099,2470.73,2023-5-28T04:27:59Z
2023-05-28T02:28:49Z,42.805,6.029,13.3032,4.60098,2470.777,2023-5-28T04:31:02Z
2023-05-28T02:31:53Z,42.805,6.029,13.3036,4.60099,2470.74,2023-5-28T04:34:05Z
2023-05-28T02:34:56Z,42.805,6.029,13.3032,4.60095,2470.74,2023-5-28T04:37:08Z
2023-05-28T02:37:59Z,42.805,6.029,13.3029,4.60107,2470.73,2023-5-28T04:40:11Z
2023-05-28T02:41:02Z,42.805,6.029,13.3036,4.60099,2470.74,2023-5-28T04:43:14Z
2023-05-28T02:44:05Z,42.805,6.029,13.3034,4.60096,2470.754,2023-5-28T04:46:17Z
2023-05-28T02:47:08Z,42.805,6.029,13.3035,4.60118,2470.763,2023-5-28T04:49:21Z
2023-05-28T02:50:11Z,42.805,6.029,13.3035,4.60099,2470.763,2023-5-28T04:52:24Z
2023-05-28T02:53:14Z,42.805,6.029,13.3040,4.60107,2470.679,2023-5-28T04:55:27Z
2023-05-28T02:56:17Z,42.805,6.029,13.3038,4.60099,2470.777,2023-5-28T04:58:30Z
2023-05-28T02:59:20Z,42.805,6.029,13.3028,4.60097,2470.74,2023-5-28T05:01:33Z
2023-05-28T03:02:23Z,42.805,6.029,13.3034,4.60110,2470.717,2023-5-28T05:04:36Z
2023-05-28T03:05:26Z,42.805,6.029,13.3034,4.60106,2470.754,2023-5-28T05:07:39Z
2023-05-28T03:08:29Z,42.805,6.029,13.3038,4.60109,2470.754,2023-5-28T05:10:42Z
2023-05-28T03:11:33Z,42.805,6.029,13.3036,4.60117,2470.74,2023-5-28T05:13:45Z
2023-05-28T03:14:36Z,42.805,6.029,13.3035,4.60094,2470.73,2023-5-28T05:16:48Z
2023-05-28T03:17:39Z,42.805,6.029,13.3027,4.60087,2470.74,2023-5-28T05:19:51Z
2023-05-28T03:20:42Z,42.805,6.029,13.3043,4.60112,2470.717,2023-5-28T05:22:54Z
2023-05-28T03:23:45Z,42.805,6.029,13.3036,4.60107,2470.74,2023-5-28T05:25:57Z
2023-05-28T03:26:48Z,42.805,6.029,13.3040,4.60096,2470.707,2023-5-28T05:29:01Z
2023-05-28T03:29:51Z,42.805,6.029,13.3038,4.60107,2470.74,2023-5-28T05:32:04Z
2023-05-28T03:32:54Z,42.805,6.029,13.3042,4.60102,2470.73,2023-5-28T05:35:07Z
2023-05-28T03:35:57Z,42.805,6.029,13.3037,4.60102,2470.693,2023-5-28T05:38:10Z
2023-05-28T03:39:00Z,42.805,6.029,13.3039,4.60114,2470.717,2023-5-28T05:41:13Z
2023-05-28T03:42:03Z,42.805,6.029,13.3035,4.60099,2470.717,2023-5-28T05:44:16Z
2023-05-28T03:45:06Z,42.805,6.029,13.3029,4.60119,2470.693,2023-5-28T05:47:19Z
2023-05-28T03:48:10Z,42.805,6.029,13.3034,4.60098,2470.74,2023-5-28T05:50:22Z
2023-05-28T03:51:13Z,42.805,6.029,13.3033,4.60094,2470.717,2023-5-28T05:53:25Z
2023-05-28T03:54:16Z,42.805,6.029,13.3027,4.60087,2470.717,2023-5-28T05:56:28Z
2023-05-28T03:57:19Z,42.805,6.029,13.3032,4.60110,2470.717,2023-5-28T05:59:31Z
2023-05-28T04:00:22Z,42.805,6.029,13.3035,4.60099,2470.717,2023-5-28T06:02:34Z
2023-05-28T04:03:25Z,42.805,6.029,13.3024,4.60083,2470.754,2023-5-28T06:05:37Z
2023-05-28T04:06:28Z,42.805,6.029,13.3026,4.60082,2470.707,2023-5-28T06:08:41Z
2023-05-28T04:09:31Z,42.805,6.029,13.3047,4.60093,2470.717,2023-5-28T06:11:44Z
2023-05-28T04:12:34Z,42.805,6.029,13.3039,4.60102,2470.717,2023-5-28T06:14:47Z
2023-05-28T04:15:37Z,42.805,6.029,13.3037,4.60091,2470.73,2023-5-28T06:17:50Z
2023-05-28T04:18:40Z,42.805,6.029,13.3034,4.60092,2470.693,2023-5-28T06:20:53Z
2023-05-28T04:21:43Z,42.805,6.029,13.3025,4.60092,2470.717,2023-5-28T06:23:56Z
2023-05-28T04:24:46Z,42.805,6.029,13.3038,4.60103,2470.717,2023-5-28T06:26:59Z
2023-05-28T04:27:50Z,42.805,6.029,13.3038,4.60088,2470.693,2023-5-28T06:30:02Z
2023-05-28T04:30:53Z,42.805,6.029,13.3036,4.60097,2470.73,2023-5-28T06:33:05Z
2023-05-28T04:33:56Z,42.805,6.029,13.3039,4.60114,2470.717,2023-5-28T06:36:08Z
2023-05-28T04:36:59Z,42.805,6.029,13.3041,4.60114,2470.693,2023-5-28T06:39:11Z
2023-05-28T04:40:02Z,42.805,6.029,13.3038,4.60119,2470.717,2023-5-28T06:42:14Z
2023-05-28T04:43:05Z,42.805,6.029,13.3039,4.60096,2470.74,2023-5-28T06:45:18Z
2023-05-28T04:46:08Z,42.805,6.029,13.3035,4.60084,2470.717,2023-5-28T06:48:21Z
2023-05-28T04:49:11Z,42.805,6.029,13.3036,4.60092,2470.707,2023-5-28T06:51:24Z
2023-05-28T04:52:14Z,42.805,6.029,13.3031,4.60109,2470.74,2023-5-28T06:54:27Z
2023-05-28T04:55:17Z,42.805,6.029,13.3026,4.60094,2470.693,2023-5-28T06:57:30Z
2023-05-28T04:58:20Z,42.805,6.029,13.3040,4.60089,2470.707,2023-5-28T07:00:33Z
2023-05-28T05:01:23Z,42.805,6.029,13.3040,4.60108,2470.717,2023-5-28T07:03:36Z
2023-05-28T05:04:26Z,42.805,6.029,13.3034,4.60089,2470.73,2023-5-28T07:06:39Z
2023-05-28T05:07:30Z,42.805,6.029,13.3036,4.60093,2470.707,2023-5-28T07:09:42Z
2023-05-28T05:10:33Z,42.805,6.029,13.3034,4.60112,2470.74,2023-5-28T07:12:45Z
2023-05-28T05:13:36Z,42.805,6.029,13.3039,4.60106,2470.73,2023-5-28T07:15:48Z
2023-05-28T05:16:39Z,42.805,6.029,13.3037,4.60102,2470.693,2023-5-28T07:18:51Z
2023-05-28T05:19:42Z,42.805,6.029,13.3031,4.60092,2470.707,2023-5-28T07:21:54Z
2023-05-28T05:22:45Z,42.805,6.029,13.3032,4.60097,2470.73,2023-5-28T07:24:58Z
2023-05-28T05:25:48Z,42.805,6.029,13.3034,4.60108,2470.693,2023-5-28T07:28:01Z
2023-05-28T05:28:51Z,42.805,6.029,13.3039,4.60110,2470.693,2023-5-28T07:31:04Z
2023-05-28T05:31:54Z,42.805,6.029,13.3035,4.60104,2470.67,2023-5-28T07:34:07Z
2023-05-28T05:34:57Z,42.805,6.029,13.3032,4.60098,2470.67,2023-5-28T07:37:10Z
2023-05-28T05:38:00Z,42.805,6.029,13.3025,4.60099,2470.693,2023-5-28T07:40:13Z
2023-05-28T05:41:03Z,42.805,6.029,13.3029,4.60114,2470.684,2023-5-28T07:43:16Z
2023-05-28T05:44:07Z,42.805,6.029,13.3031,4.60102,2470.693,2023-5-28T07:46:19Z
2023-05-28T05:47:10Z,42.805,6.029,13.3034,4.60111,2470.684,2023-5-28T07:49:22Z
2023-05-28T05:50:13Z,42.805,6.029,13.3026,4.60097,2470.693,2023-5-28T07:52:25Z
2023-05-28T05:53:16Z,42.805,6.029,13.3031,4.60114,2470.684,2023-5-28T07:55:28Z
2023-05-28T05:56:19Z,42.805,6.029,13.3035,4.60114,2470.707,2023-5-28T07:58:31Z
2023-05-28T05:59:22Z,42.805,6.029,13.3042,4.60115,2470.661,2023-5-28T08:01:35Z
2023-05-28T06:02:25Z,42.805,6.029,13.3036,4.60105,2470.707,2023-5-28T08:04:38Z
2023-05-28T06:05:28Z,42.805,6.029,13.3033,4.60122,2470.661,2023-5-28T08:07:41Z
2023-05-28T06:08:31Z,42.805,6.029,13.3036,4.60091,2470.67,2023-5-28T08:10:44Z
2023-05-28T06:11:34Z,42.805,6.029,13.3038,4.60099,2470.646,2023-5-28T08:13:47Z
2023-05-28T06:14:37Z,42.805,6.029,13.3026,4.60110,2470.646,2023-5-28T08:16:50Z
2023-05-28T06:17:40Z,42.805,6.029,13.3034,4.60119,2470.661,2023-5-28T08:19:53Z
2023-05-28T06:20:43Z,42.805,6.029,13.3027,4.60118,2470.67,2023-5-28T08:22:56Z
2023-05-28T06:23:47Z,42.805,6.029,13.3033,4.60110,2470.67,2023-5-28T08:25:59Z
2023-05-28T06:26:50Z,42.805,6.029,13.3030,4.60114,2470.661,2023-5-28T08:29:02Z
2023-05-28T06:29:53Z,42.805,6.029,13.3030,4.60116,2470.67,2023-5-28T08:32:05Z
2023-05-28T06:32:55Z,42.805,6.029,13.3030,4.60108,2470.624,2023-5-28T08:35:08Z
2023-05-28T06:35:58Z,42.805,6.029,13.3034,4.60121,2470.661,2023-5-28T08:38:11Z
2023-05-28T06:39:01Z,42.805,6.029,13.3031,4.60110,2470.646,2023-5-28T08:41:14Z
2023-05-28T06:42:04Z,42.805,6.029,13.3034,4.60114,2470.67,2023-5-28T08:44:17Z
2023-05-28T06:45:07Z,42.805,6.029,13.3039,4.60122,2470.624,2023-5-28T08:47:20Z
2023-05-28T06:48:11Z,42.805,6.029,13.3031,4.60102,2470.646,2023-5-28T08:50:23Z
2023-05-28T06:51:14Z,42.805,6.029,13.3038,4.60129,2470.646,2023-5-28T08:53:26Z
2023-05-28T06:54:17Z,42.805,6.029,13.3026,4.60107,2470.646,2023-5-28T08:56:29Z
2023-05-28T06:57:20Z,42.805,6.029,13.3032,4.60093,2470.646,2023-5-28T08:59:32Z
2023-05-28T07:00:23Z,42.805,6.029,13.3023,4.60117,2470.67,2023-5-28T09:02:35Z
2023-05-28T07:03:26Z,42.805,6.029,13.3030,4.60119,2470.646,2023-5-28T09:05:39Z
2023-05-28T07:06:29Z,42.805,6.029,13.3025,4.60114,2470.684,2023-5-28T09:08:42Z
2023-05-28T07:09:32Z,42.805,6.029,13.3029,4.60117,2470.693,2023-5-28T09:11:45Z
2023-05-28T07:12:35Z,42.805,6.029,13.3036,4.60114,2470.646,2023-5-28T09:14:48Z
2023-05-28T07:15:38Z,42.805,6.029,13.3031,4.60115,2470.646,2023-5-28T09:17:51Z
2023-05-28T07:18:41Z,42.805,6.029,13.3031,4.60110,2470.67,2023-5-28T09:20:54Z
2023-05-28T07:21:44Z,42.805,6.029,13.3027,4.60108,2470.646,2023-5-28T09:23:57Z
2023-05-28T07:24:47Z,42.805,6.029,13.3035,4.60109,2470.646,2023-5-28T09:27:00Z
2023-05-28T07:27:51Z,42.805,6.029,13.3026,4.60097,2470.67,2023-5-28T09:30:03Z
2023-05-28T07:30:54Z,42.805,6.029,13.3028,4.60116,2470.6,2023-5-28T09:33:06Z
2023-05-28T07:33:57Z,42.805,6.029,13.3039,4.60113,2470.661,2023-5-28T09:36:09Z
2023-05-28T07:37:00Z,42.805,6.029,13.3030,4.60120,2470.646,2023-5-28T09:39:12Z
2023-05-28T07:40:03Z,42.805,6.029,13.3030,4.60107,2470.637,2023-5-28T09:42:15Z
2023-05-28T07:43:06Z,42.805,6.029,13.3028,4.60116,2470.67,2023-5-28T09:45:18Z
2023-05-28T07:46:09Z,42.805,6.029,13.3031,4.60112,2470.646,2023-5-28T09:48:22Z
2023-05-28T07:49:12Z,42.805,6.029,13.3031,4.60111,2470.646,2023-5-28T09:51:25Z
2023-05-28T07:52:15Z,42.805,6.029,13.3032,4.60105,2470.646,2023-5-28T09:54:28Z
2023-05-28T07:55:18Z,42.805,6.029,13.3028,4.60107,2470.624,2023-5-28T09:57:31Z
2023-05-28T07:58:21Z,42.805,6.029,13.3033,4.60125,2470.661,2023-5-28T10:00:34Z
2023-05-28T08:01:24Z,42.805,6.029,13.3034,4.60112,2470.624,2023-5-28T10:03:37Z
2023-05-28T08:04:27Z,42.805,6.029,13.3039,4.60114,2470.624,2023-5-28T10:06:40Z
2023-05-28T08:07:31Z,42.805,6.029,13.3033,4.60119,2470.6,2023-5-28T10:09:43Z
2023-05-28T08:10:34Z,42.805,6.029,13.3036,4.60117,2470.6,2023-5-28T10:12:46Z
2023-05-28T08:13:37Z,42.805,6.029,13.3029,4.60114,2470.624,2023-5-28T10:15:49Z
2023-05-28T08:16:40Z,42.805,6.029,13.3035,4.60116,2470.624,2023-5-28T10:18:52Z
2023-05-28T08:19:43Z,42.805,6.029,13.3035,4.60114,2470.646,2023-5-28T10:21:55Z
2023-05-28T08:22:46Z,42.805,6.029,13.3036,4.60105,2470.646,2023-5-28T10:24:59Z
2023-05-28T08:25:49Z,42.805,6.029,13.3038,4.60114,2470.637,2023-5-28T10:28:02Z
2023-05-28T08:28:52Z,42.805,6.029,13.3035,4.60110,2470.624,2023-5-28T10:31:05Z
2023-05-28T08:31:54Z,42.805,6.029,13.3029,4.60120,2470.624,2023-5-28T10:34:06Z
2023-05-28T08:34:57Z,42.805,6.029,13.3034,4.60112,2470.661,2023-5-28T10:37:09Z
2023-05-28T08:38:00Z,42.805,6.029,13.3033,4.60107,2470.624,2023-5-28T10:40:12Z
2023-05-28T08:41:03Z,42.805,6.029,13.3034,4.60106,2470.614,2023-5-28T10:43:16Z
2023-05-28T08:44:06Z,42.805,6.029,13.3037,4.60105,2470.624,2023-5-28T10:46:19Z
2023-05-28T08:47:09Z,42.805,6.029,13.3036,4.60114,2470.6,2023-5-28T10:49:22Z
2023-05-28T08:50:12Z,42.805,6.029,13.3037,4.60125,2470.624,2023-5-28T10:52:25Z
2023-05-28T08:53:15Z,42.805,6.029,13.3039,4.60107,2470.586,2023-5-28T10:55:28Z
2023-05-28T08:56:18Z,42.805,6.029,13.3034,4.60140,2470.6,2023-5-28T10:58:31Z
2023-05-28T08:59:21Z,42.805,6.029,13.3033,4.60105,2470.614,2023-5-28T11:01:34Z
2023-05-28T09:02:25Z,42.805,6.029,13.3029,4.60119,2470.624,2023-5-28T11:04:37Z
2023-05-28T09:05:28Z,42.805,6.029,13.3041,4.60128,2470.624,2023-5-28T11:07:40Z
2023-05-28T09:08:31Z,42.805,6.029,13.3036,4.60110,2470.624,2023-5-28T11:10:43Z
2023-05-28T09:11:34Z,42.805,6.029,13.3035,4.60114,2470.637,2023-5-28T11:13:46Z
2023-05-28T09:14:37Z,42.805,6.029,13.3032,4.60120,2470.624,2023-5-28T11:16:50Z
2023-05-28T09:17:40Z,42.805,6.029,13.3038,4.60117,2470.614,2023-5-28T11:19:53Z
2023-05-28T09:20:43Z,42.805,6.029,13.3030,4.60112,2470.646,2023-5-28T11:22:56Z
2023-05-28T09:23:46Z,42.805,6.029,13.3026,4.60098,2470.637,2023-5-28T11:25:59Z
2023-05-28T09:26:49Z,42.805,6.029,13.3031,4.60093,2470.6,2023-5-28T11:29:02Z
2023-05-28T09:29:52Z,42.805,6.029,13.3028,4.60102,2470.6,2023-5-28T11:32:05Z
2023-05-28T09:32:55Z,42.805,6.029,13.3031,4.60114,2470.646,2023-5-28T11:35:08Z
2023-05-28T09:35:59Z,42.805,6.029,13.3036,4.60111,2470.6,2023-5-28T11:38:11Z
2023-05-28T09:39:02Z,42.805,6.029,13.3031,4.60103,2470.624,2023-5-28T11:41:14Z
2023-05-28T09:42:05Z,42.805,6.029,13.3031,4.60112,2470.6,2023-5-28T11:44:17Z
2023-05-28T09:45:08Z,42.805,6.029,13.3038,4.60123,2470.624,2023-5-28T11:47:20Z
2023-05-28T09:48:11Z,42.805,6.029,13.3031,4.60114,2470.614,2023-5-28T11:50:23Z
2023-05-28T09:51:14Z,42.805,6.029,13.3030,4.60107,2470.6,2023-5-28T11:53:27Z
2023-05-28T09:54:17Z,42.805,6.029,13.3030,4.60117,2470.646,2023-5-28T11:56:30Z
2023-05-28T09:57:20Z,42.805,6.029,13.3036,4.60102,2470.624,2023-5-28T11:59:33Z
2023-05-28T10:00:23Z,42.805,6.029,13.3031,4.60104,2470.637,2023-5-28T12:02:36Z
2023-05-28T10:03:26Z,42.805,6.029,13.3029,4.60116,2470.6,2023-5-28T12:05:39Z
2023-05-28T10:06:29Z,42.805,6.029,13.3041,4.60122,2470.577,2023-5-28T12:08:42Z
2023-05-28T10:09:32Z,42.805,6.029,13.3040,4.60107,2470.637,2023-5-28T12:11:45Z
2023-05-28T10:12:36Z,42.805,6.029,13.3034,4.60103,2470.646,2023-5-28T12:14:48Z
2023-05-28T10:15:39Z,42.805,6.029,13.3039,4.60132,2470.614,2023-5-28T12:17:51Z
2023-05-28T10:18:42Z,42.805,6.029,13.3036,4.60142,2470.6,2023-5-28T12:20:54Z
2023-05-28T10:21:45Z,42.805,6.029,13.3045,4.60138,2470.624,2023-5-28T12:23:57Z
2023-05-28T10:24:48Z,42.805,6.029,13.3046,4.60130,2470.614,2023-5-28T12:27:00Z
2023-05-28T10:27:51Z,42.805,6.029,13.3032,4.60130,2470.637,2023-5-28T12:30:04Z
2023-05-28T10:30:54Z,42.805,6.029,13.3038,4.60111,2470.6,2023-5-28T12:33:07Z
2023-05-28T10:33:57Z,42.805,6.029,13.3029,4.60113,2470.624,2023-5-28T12:36:10Z
2023-05-28T10:37:00Z,42.805,6.029,13.3033,4.60114,2470.646,2023-5-28T12:39:13Z
2023-05-28T10:40:03Z,42.805,6.029,13.3046,4.60116,2470.637,2023-5-28T12:42:16Z
2023-05-28T10:43:06Z,42.805,6.029,13.3038,4.60117,2470.637,2023-5-28T12:45:19Z
2023-05-28T10:46:09Z,42.805,6.029,13.3042,4.60138,2470.624,2023-5-28T12:48:22Z
2023-05-28T10:49:13Z,42.805,6.029,13.3041,4.60148,2470.637,2023-5-28T12:51:25Z
2023-05-28T10:52:16Z,42.805,6.029,13.3035,4.60131,2470.661,2023-5-28T12:54:28Z
2023-05-28T10:55:19Z,42.805,6.029,13.3039,4.60135,2470.624,2023-5-28T12:57:31Z
2023-05-28T10:58:22Z,42.805,6.029,13.3050,4.60133,2470.577,2023-5-28T13:00:34Z
2023-05-28T11:01:25Z,42.805,6.029,13.3024,4.60122,2470.6,2023-5-28T13:03:37Z
2023-05-28T11:04:28Z,42.805,6.029,13.3034,4.60131,2470.637,2023-5-28T13:06:41Z
2023-05-28T11:07:31Z,42.805,6.029,13.3038,4.60143,2470.661,2023-5-28T13:09:44Z
2023-05-28T11:10:34Z,42.805,6.029,13.3036,4.60140,2470.624,2023-5-28T13:12:47Z
2023-05-28T11:13:37Z,42.805,6.029,13.3031,4.60144,2470.637,2023-5-28T13:15:50Z
2023-05-28T11:16:40Z,42.805,6.029,13.3035,4.60145,2470.6,2023-5-28T13:18:53Z
2023-05-28T11:19:43Z,42.805,6.029,13.3039,4.60148,2470.637,2023-5-28T13:21:56Z
2023-05-28T11:22:46Z,42.805,6.029,13.3036,4.60145,2470.684,2023-5-28T13:24:59Z
2023-05-28T11:25:50Z,42.805,6.029,13.3049,4.60156,2470.614,2023-5-28T13:28:02Z
2023-05-28T11:28:53Z,42.805,6.029,13.3036,4.60169,2470.614,2023-5-28T13:31:05Z
2023-05-28T11:31:56Z,42.805,6.029,13.3052,4.60127,2470.646,2023-5-28T13:34:08Z
2023-05-28T11:34:59Z,42.805,6.029,13.3056,4.60128,2470.637,2023-5-28T13:37:11Z
2023-05-28T11:38:02Z,42.805,6.029,13.3035,4.60134,2470.646,2023-5-28T13:40:15Z
2023-05-28T11:41:05Z,42.805,6.029,13.3036,4.60145,2470.637,2023-5-28T13:43:18Z
2023-05-28T11:44:08Z,42.805,6.029,13.3034,4.60150,2470.614,2023-5-28T13:46:21Z
2023-05-28T11:47:11Z,42.805,6.029,13.3036,4.60173,2470.637,2023-5-28T13:49:24Z
2023-05-28T11:50:14Z,42.805,6.029,13.3048,4.60163,2470.624,2023-5-28T13:52:27Z
2023-05-28T11:53:17Z,42.805,6.029,13.3040,4.60152,2470.646,2023-5-28T13:55:30Z
2023-05-28T11:56:20Z,42.805,6.029,13.3051,4.60146,2470.637,2023-5-28T13:58:33Z
2023-05-28T11:59:24Z,42.805,6.029,13.3048,4.60180,2470.624,2023-5-28T14:01:36Z
2023-05-28T12:02:27Z,42.805,6.029,13.3039,4.60155,2470.624,2023-5-28T14:04:39Z
2023-05-28T12:05:30Z,42.805,6.029,13.3042,4.60152,2470.614,2023-5-28T14:07:42Z
2023-05-28T12:08:33Z,42.805,6.029,13.3039,4.60144,2470.637,2023-5-28T14:10:45Z
2023-05-28T12:11:36Z,42.805,6.029,13.3043,4.60142,2470.637,2023-5-28T14:13:48Z
2023-05-28T12:14:39Z,42.805,6.029,13.3040,4.60150,2470.646,2023-5-28T14:16:52Z
2023-05-28T12:17:42Z,42.805,6.029,13.3052,4.60160,2470.624,2023-5-28T14:19:55Z
2023-05-28T12:20:45Z,42.805,6.029,13.3040,4.60160,2470.637,2023-5-28T14:22:58Z
2023-05-28T12:23:48Z,42.805,6.029,13.3045,4.60147,2470.61,2023-5-28T14:26:01Z
2023-05-28T12:26:51Z,42.805,6.029,13.3048,4.60158,2470.646,2023-5-28T14:29:04Z
2023-05-28T12:29:54Z,42.805,6.029,13.3040,4.60152,2470.646,2023-5-28T14:32:07Z
2023-05-28T12:32:57Z,42.805,6.029,13.3043,4.60165,2470.646,2023-5-28T14:35:10Z
2023-05-28T12:36:00Z,42.805,6.029,13.3043,4.60170,2470.633,2023-5-28T14:38:13Z
2023-05-28T12:39:04Z,42.805,6.029,13.3035,4.60166,2470.646,2023-5-28T14:41:16Z
2023-05-28T12:42:07Z,42.805,6.029,13.3042,4.60189,2470.661,2023-5-28T14:44:19Z
2023-05-28T12:45:10Z,42.805,6.029,13.3043,4.60173,2470.646,2023-5-28T14:47:22Z
2023-05-28T12:48:13Z,42.805,6.029,13.3048,4.60147,2470.67,2023-5-28T14:50:25Z
2023-05-28T12:51:16Z,42.805,6.029,13.3056,4.60127,2470.646,2023-5-28T14:53:29Z
2023-05-28T12:54:19Z,42.805,6.029,13.3066,4.60110,2470.661,2023-5-28T14:56:32Z
2023-05-28T12:57:22Z,42.805,6.029,13.3052,4.60159,2470.637,2023-5-28T14:59:35Z
2023-05-28T13:00:25Z,42.805,6.029,13.3047,4.60167,2470.661,2023-5-28T15:02:38Z
2023-05-28T13:03:28Z,42.805,6.029,13.3061,4.60154,2470.624,2023-5-28T15:05:41Z
2023-05-28T13:06:31Z,42.805,6.029,13.3053,4.60152,2470.624,2023-5-28T15:08:44Z
2023-05-28T13:09:34Z,42.805,6.029,13.3051,4.60145,2470.646,2023-5-28T15:11:47Z
2023-05-28T13:12:38Z,42.805,6.029,13.3039,4.60165,2470.624,2023-5-28T15:14:50Z
2023-05-28T13:15:41Z,42.805,6.029,13.3040,4.60153,2470.684,2023-5-28T15:17:53Z
2023-05-28T13:18:44Z,42.805,6.029,13.3035,4.60186,2470.67,2023-5-28T15:20:56Z
2023-05-28T13:21:47Z,42.805,6.029,13.3054,4.60159,2470.67,2023-5-28T15:23:59Z
2023-05-28T13:24:50Z,42.805,6.029,13.3058,4.60146,2470.661,2023-5-28T15:27:02Z
2023-05-28T13:27:53Z,42.805,6.029,13.3067,4.60120,2470.67,2023-5-28T15:30:06Z
2023-05-28T13:30:56Z,42.805,6.029,13.3073,4.60116,2470.67,2023-5-28T15:33:09Z
2023-05-28T13:33:59Z,42.805,6.029,13.3053,4.60135,2470.661,2023-5-28T15:36:12Z
2023-05-28T13:37:02Z,42.805,6.029,13.3046,4.60097,2470.646,2023-5-28T15:39:15Z
2023-05-28T13:40:05Z,42.805,6.029,13.3029,4.60110,2470.646,2023-5-28T15:42:18Z
2023-05-28T13:43:08Z,42.805,6.029,13.3032,4.60093,2470.637,2023-5-28T15:45:21Z
2023-05-28T13:46:11Z,42.805,6.029,13.3029,4.60107,2470.646,2023-5-28T15:48:24Z
2023-05-28T13:49:14Z,42.805,6.029,13.3025,4.60090,2470.661,2023-5-28T15:51:27Z
2023-05-28T13:52:18Z,42.805,6.029,13.3026,4.60092,2470.67,2023-5-28T15:54:30Z
2023-05-28T13:55:21Z,42.805,6.029,13.3024,4.60084,2470.661,2023-5-28T15:57:33Z
2023-05-28T13:58:24Z,42.805,6.029,13.3021,4.60086,2470.646,2023-5-28T16:00:36Z
2023-05-28T14:01:27Z,42.805,6.029,13.3019,4.60084,2470.646,2023-5-28T16:03:39Z
2023-05-28T14:04:30Z,42.805,6.029,13.3022,4.60082,2470.637,2023-5-28T16:06:43Z
2023-05-28T14:07:33Z,42.805,6.029,13.3019,4.60081,2470.646,2023-5-28T16:09:46Z
2023-05-28T14:10:36Z,42.805,6.029,13.3024,4.60084,2470.646,2023-5-28T16:12:49Z
2023-05-28T14:13:39Z,42.805,6.029,13.3021,4.60081,2470.646,2023-5-28T16:15:52Z
2023-05-28T14:16:42Z,42.805,6.029,13.3022,4.60081,2470.637,2023-5-28T16:18:55Z
2023-05-28T14:19:45Z,42.805,6.029,13.3022,4.60080,2470.6,2023-5-28T16:21:58Z
2023-05-28T14:22:48Z,42.805,6.029,13.3024,4.60081,2470.646,2023-5-28T16:25:01Z
2023-05-28T14:25:51Z,42.805,6.029,13.3021,4.60082,2470.67,2023-5-28T16:28:04Z
2023-05-28T14:28:55Z,42.805,6.029,13.3020,4.60080,2470.661,2023-5-28T16:31:07Z
2023-05-28T14:31:59Z,42.805,6.029,13.3019,4.60081,2470.646,2023-5-28T16:34:12Z
2023-05-28T14:35:02Z,42.805,6.029,13.3023,4.60080,2470.646,2023-5-28T16:37:15Z
2023-05-28T14:38:05Z,42.805,6.029,13.3024,4.60081,2470.637,2023-5-28T16:40:18Z
2023-05-28T14:41:08Z,42.805,6.029,13.3026,4.60080,2470.633,2023-5-28T16:43:21Z
2023-05-28T14:44:11Z,42.805,6.029,13.3026,4.60081,2470.67,2023-5-28T16:46:24Z
2023-05-28T14:47:14Z,42.805,6.029,13.3022,4.60080,2470.646,2023-5-28T16:49:27Z
2023-05-28T14:50:18Z,42.805,6.029,13.3021,4.60081,2470.684,2023-5-28T16:52:30Z
2023-05-28T14:53:21Z,42.805,6.029,13.3020,4.60079,2470.624,2023-5-28T16:55:33Z
2023-05-28T14:56:24Z,42.805,6.029,13.3022,4.60079,2470.646,2023-5-28T16:58:36Z
2023-05-28T14:59:27Z,42.805,6.029,13.3020,4.60079,2470.646,2023-5-28T17:01:39Z
2023-05-28T15:02:30Z,42.805,6.029,13.3021,4.60078,2470.624,2023-5-28T17:04:43Z
2023-05-28T15:05:33Z,42.805,6.029,13.3022,4.60079,2470.646,2023-5-28T17:07:46Z
2023-05-28T15:08:36Z,42.805,6.029,13.3020,4.60080,2470.646,2023-5-28T17:10:49Z
2023-05-28T15:11:39Z,42.805,6.029,13.3021,4.60084,2470.646,2023-5-28T17:13:52Z
2023-05-28T15:14:42Z,42.805,6.029,13.3024,4.60079,2470.684,2023-5-28T17:16:55Z